{"data":{"norad_id":65803,"epoch":"2026-09-20T14:13:18.597504Z","epoch_age_seconds":98115,"freshness":"FRESH","line1":"1 65803U 25218N   26263.59257636  .00014138  00000+0  43916-3 0  9994","line2":"2 65803  97.2842 120.9023 0002261  87.9117 272.2385 15.33462899 54342","mean_motion":15.33462899,"eccentricity":0.0002261,"inclination_deg":97.2842,"raan_deg":120.9023,"arg_perigee_deg":87.9117,"mean_anomaly_deg":272.2385,"bstar":0.00043916,"rev_number":5434,"period_min":93.90510855783,"perigee_km":463.9425761185,"apogee_km":467.0372642118,"semimajor_km":6843.6269201652,"source":"CELESTRAK","updated_at":"2026-09-21T09:00:35.715835Z"}}